Погода в Сиазани

Азербайджан     41°04′28″N   49°06′40″E
темп.,
°C
ветер,
м/с
пор.,
м/с
влажн.,
%
обл.,
%
осадки,
мм/ч
давл.,
гПа
погр.,
м
16 мая, вс
вс1601:00+17юз55230 0.0 101546
04:00+16юз54220 0.0 101542
07:00+17юз55380 0.0 101560
10:00+25ю510250 0.0 10141603
13:00+26ю89250 0.0 10122109
16:00+26ю79270 0.0 10112000
19:00+21ю612360 0.0 1011311
22:00+18ююз69360 0.0 1012161
17 мая, пн
пн1701:00+17ююз68350 0.0 1010131
04:00+17ююз69392 0.0 1008213
07:00+18юз564412 0.0 1008119
10:00+25ююз35293 0.0 1007699
13:00+29ююз47286 0.0 10061096
16:00+29юз610310 0.0 1004970
19:00+23ююз56490 0.0 1005122
22:00+20юз794861 0.0 1006132
18 мая, вт
вт1801:00+21юз673721 0.0 100584
04:00+19ююз444280 0.0 100549
07:00+19ссз1155100 0.0 100641
10:00+21с3358100 0.0 1008783
13:00+22ссв5464100 0.0 1009973
16:00+21с556722 0.3 1009761
19:00+18ссз468195 0.0 1010523
22:00+16зсз228927 0.0 101225
19 мая, ср
ср1901:00+16з338316 0.0 101251
04:00+15з33780 0.0 101224
07:00+17з12720 0.0 1012130
10:00+21всв32570 0.0 1011796
13:00+23всв34525 0.0 10101065
16:00+21св42601 0.0 1012703
19:00+18с2371100 0.0 1014290
22:00+16зюз3275100 0.0 101524
20 мая, чт
чт2001:00+17зюз337288 0.0 101624
04:00+15ссз347510 0.0 101891
07:00+16сз367527 0.0 1020600
10:00+18с445338 0.0 10201021
13:00+21св434930 0.0 10191043
16:00+19ссв535215 0.0 1020661
19:00+16ссв22650 0.0 1020204
22:00+13зюз22710 0.0 102114